Flag for Germany Weather past 2 weeks in Maintal, Hesse, Germany

Now
39 °F

Light rain. Overcast.


Feels Like: 33 °F
Forecast: 33 / 37 °F
Wind: 8 mph from South

Location: Frankfurt / M-Flughafen

Current Time: Jan 29, 2015 at 7:36:28 PM

Latest Report: Jan 29, 2015 at 7:00 PM


Visibility: 13 mi

Pressure: 28.97 "Hg

Humidity: 91%

Dew point: 36 °F

Location of MaintalLocation

Historic Weather in Maintal — Graph

°F

Maintal temperature yesterday

Maximum temperature yesterday: 41 °F (at 5:00 PM)
Minimum temperature yesterday: 35 °F (at 7:00 AM)
Average temperature yesterday: 38 °F

Past Weeks' High & Low Weather Summary

 TemperatureHumidityPressure
High51 °F (Jan 15, 7:00 PM)100% (Jan 16, 11:00 PM)30.45 "Hg (Jan 16, 11:00 PM)
Low24 °F (Jan 24, 3:00 AM)58% (Jan 15, 6:00 PM)29.03 "Hg (Jan 29, 6:00 PM)
Average36 °F88%30.00 "Hg
* Reported Jan 14 6:00 PM — Jan 29 6:00 PM, Maintal, Weather by CustomWeather, © 2014

Note: Actual official high and low records may vary slightly from our data, if they occured in-between our weather recording intervals... More about our weather records

Advertising

Maintal weather history for previous 24 hours

 ConditionsComfort  
Time TempWeatherWind HumidityBarometerVisibility
6:00 PM
Jan 29
38 °FLight rain. Low clouds.7 mph92%29.03 "Hg12 mi
5:00 PM38 °FLow clouds.6 mph92%29.06 "Hg12 mi
3:00 PM38 °FOvercast.7 mph86%29.18 "Hg25 mi
2:00 PM40 °FOvercast.9 mph81%29.23 "Hg19 mi
1:00 PM37 °FLow clouds.6 mph94%29.26 "Hg7 mi
12:00 PM36 °FLight rain. Low clouds.8 mph94%29.32 "Hg9 mi
11:00 AM35 °FLight snow. Low clouds.8 mph94%29.35 "Hg4 mi
10:00 AM34 °FSnow flurries. Low clouds.9 mph92%29.41 "Hg2 mi
9:00 AM35 °FOvercast.8 mph83%29.41 "Hg16 mi
8:00 AM33 °FOvercast.7 mph88%29.44 "Hg19 mi
7:00 AM33 °FPassing clouds.6 mph86%29.47 "Hg22 mi
6:00 AM34 °FPassing clouds.7 mph82%29.50 "Hg19 mi
5:00 AM35 °FPassing clouds.7 mph78%29.50 "Hg25 mi
4:00 AM35 °FPassing clouds.6 mph80%29.53 "Hg19 mi
3:00 AM35 °FPassing clouds.6 mph84%29.54 "Hg19 mi
2:00 AM33 °FPassing clouds.5 mph92%29.55 "Hg19 mi
1:00 AM35 °FPassing clouds.5 mph93%29.54 "Hg19 mi
12:00 AM35 °FOvercast.5 mph92%29.55 "Hg19 mi
11:00 PM
Jan 28
37 °FLight rain. Low clouds.3 mph90%29.55 "Hg19 mi
10:00 PM40 °FRain. Low clouds.10 mph97%29.54 "Hg4 mi
9:00 PM40 °FLight rain. Low clouds.9 mph92%29.50 "Hg6 mi
8:00 PM40 °FRain. Low clouds.8 mph92%29.57 "Hg3 mi
Weather by CustomWeather, © 2014

See weather overviewHow to use our weather pages